| time (UTC) | temp C | wind direction | speed KPH | gust KPH | rain 1hr cm | rain 24hr cm | rain mn cm | humidity % | barometer mb |
| 20260508142005 | 22 | 220 | 11.3 | 19.3 | 0.00 | 0.00 | 0.00 | 38 | 1000.8 |
| 20260508141006 | 23 | 205 | 11.3 | 16.1 | 0.00 | 0.00 | 0.00 | 37 | 1000.8 |
| 20260508140005 | 25 | 180 | 9.7 | 16.1 | 0.00 | 0.00 | 0.00 | 34 | 1001.0 |
| 20260508135005 | 24 | 173 | 11.3 | 14.5 | 0.00 | 0.00 | 0.00 | 34 | 1001.1 |
| 20260508134005 | 24 | 215 | 11.3 | 16.1 | 0.00 | 0.00 | 0.00 | 35 | 1001.2 |
| 20260508133005 | 22 | 154 | 9.7 | 20.9 | 0.00 | 0.00 | 0.00 | 37 | 1001.3 |
| 20260508132005 | 22 | 202 | 12.9 | 20.9 | 0.00 | 0.00 | 0.00 | 40 | 1001.6 |
| 20260508131005 | 23 | 99 | 8.0 | 14.5 | 0.00 | 0.00 | 0.00 | 37 | 1001.8 |
| 20260508130005 | 21 | 180 | 16.1 | 20.9 | 0.00 | 0.00 | 0.00 | 43 | 1001.9 |
| 20260508125006 | 21 | 180 | 8.0 | 14.5 | 0.00 | 0.00 | 0.00 | 44 | 1001.9 |
| 20260508124006 | 23 | 215 | 11.3 | 12.9 | 0.00 | 0.00 | 0.00 | 39 | 1002.0 |
| 20260508122005 | 20 | 193 | 8.0 | 16.1 | 0.00 | 0.00 | 0.00 | 46 | 1002.3 |
| 20260508121005 | 20 | 214 | 14.5 | 22.5 | 0.00 | 0.00 | 0.00 | 44 | 1002.3 |
| 20260508120005 | 22 | 180 | 8.0 | 16.1 | 0.00 | 0.00 | 0.00 | 40 | 1002.5 |
| 20260508115005 | 22 | 183 | 8.0 | 20.9 | 0.00 | 0.00 | 0.00 | 39 | 1002.6 |
| 20260508114005 | 22 | 144 | 8.0 | 14.5 | 0.00 | 0.00 | 0.00 | 40 | 1002.7 |
| 20260508113006 | 21 | 255 | 6.4 | 14.5 | 0.00 | 0.00 | 0.00 | 44 | 1002.9 |
| 20260508111005 | 21 | 209 | 11.3 | 19.3 | 0.00 | 0.00 | 0.00 | 42 | 1003.0 |
| 20260508110005 | 22 | 182 | 11.3 | 16.1 | 0.00 | 0.00 | 0.00 | 41 | 1003.2 |
| 20260508104005 | 22 | 229 | 11.3 | 19.3 | 0.00 | 0.00 | 0.00 | 42 | 1003.3 |
| 20260508103005 | 22 | 182 | 12.9 | 19.3 | 0.00 | 0.00 | 0.00 | 42 | 1003.3 |
| 20260508102005 | 21 | 224 | 9.7 | 16.1 | 0.00 | 0.00 | 0.00 | 43 | 1003.5 |
| 20260508101005 | 21 | 231 | 8.0 | 19.3 | 0.00 | 0.00 | 0.00 | 43 | 1003.5 |
| 20260508100005 | 20 | 194 | 9.7 | 19.3 | 0.00 | 0.00 | 0.00 | 45 | 1003.5 |
| 20260508095005 | 20 | 194 | 6.4 | 16.1 | 0.00 | 0.00 | 0.00 | 49 | 1003.6 |
| 20260508094005 | 20 | 188 | 11.3 | 12.9 | 0.00 | 0.00 | 0.00 | 51 | 1003.7 |
| 20260508093005 | 18 | 180 | 8.0 | 12.9 | 0.00 | 0.00 | 0.00 | 56 | 1003.6 |
| 20260508092005 | 17 | 131 | 14.5 | 19.3 | 0.00 | 0.00 | 0.00 | 57 | 1003.8 |
| 20260508091005 | 18 | 168 | 9.7 | 16.1 | 0.00 | 0.00 | 0.00 | 57 | 1003.7 |
| 20260508085004 | 17 | 211 | 8.0 | 11.3 | 0.00 | 0.00 | 0.00 | 62 | 1003.8 |
| 20260508084005 | 17 | 170 | 4.8 | 9.7 | 0.00 | 0.00 | 0.00 | 63 | 1003.8 |
| 20260508083005 | 17 | 132 | 4.8 | 9.7 | 0.00 | 0.00 | 0.00 | 65 | 1003.7 |
| 20260508082005 | 16 | 246 | 4.8 | 11.3 | 0.00 | 0.00 | 0.00 | 67 | 1003.7 |
| 20260508080004 | 15 | 242 | 6.4 | 8.0 | 0.00 | 0.00 | 0.00 | 75 | 1003.7 |
| 20260508075005 | 15 | 199 | 4.8 | 8.0 | 0.00 | 0.00 | 0.00 | 75 | 1003.6 |
| 20260508073004 | 14 | 208 | 0.0 | 3.2 | 0.00 | 0.00 | 0.00 | 74 | 1003.5 |
| 20260508072005 | 14 | 183 | 0.0 | 0.0 | 0.00 | 0.00 | 0.00 | 73 | 1003.3 |
| 20260508070006 | 13 | 188 | 0.0 | 0.0 | 0.00 | 0.00 | 0.00 | 76 | 1002.9 |
| 20260508065005 | 13 | 136 | 0.0 | 0.0 | 0.00 | 0.00 | 0.00 | 76 | 1002.9 |
| 20260508063004 | 13 | 141 | 0.0 | 0.0 | 0.00 | 0.00 | 0.00 | 80 | 1002.9 |
| 20260508060005 | 13 | 80 | 0.0 | 0.0 | 0.00 | 0.00 | 0.00 | 81 | 1002.6 |
| 20260508055005 | 13 | 170 | 0.0 | 0.0 | 0.00 | 0.00 | 0.00 | 81 | 1002.6 |
| 20260508054005 | 13 | 22 | 0.0 | 0.0 | 0.00 | 0.00 | 0.00 | 81 | 1002.5 |
| 20260508053004 | 13 | 13 | 0.0 | 0.0 | 0.00 | 0.00 | 0.00 | 81 | 1002.4 |
| 20260508052005 | 13 | 270 | 0.0 | 0.0 | 0.00 | 0.00 | 0.00 | 81 | 1002.5 |
| 20260508051005 | 13 | 210 | 0.0 | 0.0 | 0.00 | 0.00 | 0.00 | 79 | 1002.4 |
| 20260508050004 | 13 | 195 | 0.0 | 0.0 | 0.00 | 0.00 | 0.00 | 78 | 1002.4 |
| 20260508045006 | 13 | 183 | 0.0 | 0.0 | 0.00 | 0.00 | 0.00 | 77 | 1002.4 |
| 20260508044005 | 13 | 210 | 0.0 | 0.0 | 0.00 | 0.00 | 0.00 | 77 | 1002.3 |
| 20260508043005 | 13 | 171 | 0.0 | 0.0 | 0.00 | 0.00 | 0.00 | 77 | 1002.3 |
| 20260508042006 | 13 | 158 | 0.0 | 0.0 | 0.00 | 0.00 | 0.00 | 78 | 1002.2 |
| 20260508040006 | 13 | 183 | 0.0 | 0.0 | 0.00 | 0.00 | 0.00 | 79 | 1002.1 |
| 20260508035005 | 13 | 158 | 0.0 | 0.0 | 0.00 | 0.00 | 0.00 | 80 | 1002.2 |
| 20260508033006 | 13 | 206 | 0.0 | 8.0 | 0.00 | 0.00 | 0.00 | 81 | 1002.3 |
| 20260508032005 | 13 | 201 | 8.0 | 9.7 | 0.00 | 0.00 | 0.00 | 81 | 1002.3 |
| 20260508030006 | 13 | 202 | 0.0 | 1.6 | 0.00 | 0.00 | 0.00 | 81 | 1002.4 |
| 20260508025006 | 13 | 133 | 0.0 | 11.3 | 0.00 | 0.00 | 0.00 | 82 | 1002.4 |
| 20260508024006 | 13 | 193 | 0.0 | 0.0 | 0.00 | 0.00 | 0.00 | 82 | 1002.3 |
| 20260508022005 | 13 | 188 | 0.0 | 0.0 | 0.00 | 0.00 | 0.00 | 83 | 1002.6 |
| 20260508021005 | 13 | 195 | 0.0 | 0.0 | 0.00 | 0.00 | 0.00 | 84 | 1002.8 |
| 20260508020005 | 13 | 178 | 0.0 | 0.0 | 0.00 | 0.00 | 0.00 | 84 | 1002.8 |
| 20260508015005 | 13 | 173 | 0.0 | 0.0 | 0.00 | 0.00 | 0.00 | 84 | 1002.8 |
| 20260508013006 | 13 | 202 | 9.7 | 11.3 | 0.00 | 0.00 | 0.00 | 83 | 1002.7 |
| 20260508012005 | 13 | 199 | 8.0 | 11.3 | 0.00 | 0.00 | 0.00 | 82 | 1003.0 |
| 20260508011005 | 13 | 191 | 0.0 | 0.0 | 0.00 | 0.00 | 0.00 | 82 | 1002.9 |
| 20260508010005 | 13 | 212 | 0.0 | 0.0 | 0.00 | 0.00 | 0.00 | 82 | 1003.0 |
| 20260508004005 | 14 | 177 | 0.0 | 0.0 | 0.00 | 0.00 | 0.00 | 81 | 1002.9 |
| 20260508001005 | 14 | 132 | 0.0 | 0.0 | 0.00 | 0.00 | 0.00 | 80 | 1003.1 |
| 20260508000005 | 14 | 227 | 0.0 | 0.0 | 0.00 | 0.00 | 0.00 | 80 | 1003.3 |
| 20260507235005 | 14 | 137 | 0.0 | 0.0 | 0.00 | 0.00 | 0.00 | 80 | 1003.3 |
| 20260507234005 | 14 | 217 | 0.0 | 0.0 | 0.00 | 0.00 | 0.00 | 81 | 1003.4 |
| 20260507233005 | 14 | 232 | 0.0 | 0.0 | 0.00 | 0.00 | 0.00 | 80 | 1003.4 |
| 20260507232006 | 14 | 320 | 0.0 | 0.0 | 0.00 | 0.00 | 0.00 | 81 | 1003.5 |
| 20260507231005 | 14 | 22 | 0.0 | 0.0 | 0.00 | 0.00 | 0.00 | 79 | 1003.6 |
| 20260507230006 | 14 | 35 | 0.0 | 0.0 | 0.00 | 0.00 | 0.00 | 79 | 1003.9 |
| 20260507225005 | 14 | 274 | 0.0 | 0.0 | 0.00 | 0.00 | 0.00 | 79 | 1003.9 |
| 20260507223005 | 14 | 270 | 3.2 | 8.0 | 0.00 | 0.00 | 0.00 | 78 | 1004.0 |
| 20260507222005 | 14 | 290 | 3.2 | 8.0 | 0.00 | 0.00 | 0.00 | 78 | 1004.0 |
| 20260507221005 | 14 | 269 | 1.6 | 9.7 | 0.00 | 0.00 | 0.00 | 78 | 1004.1 |
| 20260507215005 | 15 | 248 | 0.0 | 0.0 | 0.00 | 0.00 | 0.00 | 77 | 1004.2 |
| 20260507214005 | 15 | 303 | 0.0 | 0.0 | 0.00 | 0.00 | 0.00 | 76 | 1004.2 |
| 20260507213005 | 15 | 240 | 0.0 | 0.0 | 0.00 | 0.00 | 0.00 | 75 | 1004.4 |
| 20260507212005 | 15 | 287 | 0.0 | 0.0 | 0.00 | 0.00 | 0.00 | 74 | 1004.3 |
| 20260507211005 | 15 | 270 | 0.0 | 1.6 | 0.00 | 0.00 | 0.00 | 73 | 1004.2 |
| 20260507210007 | 15 | 265 | 4.8 | 4.8 | 0.00 | 0.00 | 0.00 | 73 | 1004.1 |
| 20260507205005 | 15 | 270 | 4.8 | 11.3 | 0.00 | 0.00 | 0.00 | 72 | 1004.0 |
| 20260507203005 | 15 | 270 | 0.0 | 0.0 | 0.00 | 0.00 | 0.00 | 71 | 1003.7 |
| 20260507202006 | 16 | 270 | 0.0 | 0.0 | 0.00 | 0.00 | 0.00 | 70 | 1003.6 |
| 20260507200005 | 16 | 293 | 0.0 | 0.0 | 0.00 | 0.00 | 0.00 | 68 | 1003.5 |
| 20260507195005 | 16 | 341 | 3.2 | 11.3 | 0.00 | 0.03 | 0.00 | 67 | 1003.4 |
| 20260507194006 | 16 | 280 | 4.8 | 9.7 | 0.00 | 0.03 | 0.00 | 66 | 1003.4 |
| 20260507193005 | 16 | 336 | 1.6 | 11.3 | 0.00 | 0.03 | 0.00 | 66 | 1003.3 |
| 20260507192005 | 16 | 288 | 3.2 | 12.9 | 0.00 | 0.03 | 0.00 | 66 | 1003.2 |
| 20260507191005 | 17 | 256 | 9.7 | 12.9 | 0.00 | 0.03 | 0.00 | 65 | 1003.1 |
| 20260507190006 | 17 | 248 | 8.0 | 14.5 | 0.00 | 0.03 | 0.00 | 64 | 1003.1 |
| 20260507185005 | 17 | 283 | 12.9 | 16.1 | 0.00 | 0.03 | 0.00 | 63 | 1003.0 |
| 20260507184005 | 17 | 273 | 11.3 | 16.1 | 0.00 | 0.03 | 0.00 | 62 | 1002.9 |
| 20260507183005 | 17 | 292 | 12.9 | 19.3 | 0.00 | 0.03 | 0.00 | 61 | 1002.8 |
| 20260507182005 | 17 | 258 | 19.3 | 24.1 | 0.00 | 0.03 | 0.00 | 61 | 1002.6 |
| 20260507181005 | 18 | 270 | 16.1 | 22.5 | 0.00 | 0.03 | 0.00 | 61 | 1002.4 |
| 20260507180005 | 18 | 272 | 19.3 | 25.7 | 0.00 | 0.03 | 0.00 | 59 | 1002.2 |
| 20260507175005 | 18 | 268 | 19.3 | 25.7 | 0.00 | 0.03 | 0.00 | 58 | 1002.1 |
| 20260507174005 | 19 | 271 | 20.9 | 22.5 | 0.00 | 0.03 | 0.00 | 57 | 1002.1 |
| 20260507173007 | 20 | 270 | 19.3 | 25.7 | 0.00 | 0.03 | 0.00 | 56 | 1002.0 |
| 20260507171006 | 20 | 261 | 17.7 | 22.5 | 0.00 | 0.03 | 0.00 | 53 | 1001.9 |
| 20260507170005 | 22 | 225 | 16.1 | 16.1 | 0.00 | 0.03 | 0.00 | 47 | 1001.8 |
| 20260507165006 | 22 | 270 | 16.1 | 20.9 | 0.00 | 0.03 | 0.00 | 47 | 1001.7 |
| 20260507164005 | 22 | 327 | 11.3 | 19.3 | 0.00 | 0.03 | 0.00 | 47 | 1001.6 |
| 20260507163005 | 22 | 273 | 14.5 | 20.9 | 0.00 | 0.03 | 0.00 | 45 | 1001.5 |
| 20260507161005 | 23 | 287 | 14.5 | 20.9 | 0.00 | 0.03 | 0.00 | 40 | 1001.5 |
| 20260507160008 | 23 | 233 | 14.5 | 20.9 | 0.00 | 0.03 | 0.00 | 39 | 1001.5 |
| 20260507155008 | 23 | 253 | 12.9 | 19.3 | 0.00 | 0.03 | 0.00 | 40 | 1001.6 |
| 20260507154017 | 23 | 171 | 4.8 | 19.3 | 0.00 | 0.03 | 0.00 | 39 | 1001.6 |
| 20260507153005 | 24 | 232 | 14.5 | 22.5 | 0.00 | 0.03 | 0.00 | 37 | 1001.6 |
| 20260507152006 | 25 | 237 | 4.8 | 19.3 | 0.00 | 0.03 | 0.00 | 36 | 1001.9 |
| 20260507151005 | 23 | 270 | 8.0 | 16.1 | 0.00 | 0.03 | 0.00 | 38 | 1002.0 |
| 20260507150006 | 22 | 247 | 11.3 | 16.1 | 0.00 | 0.03 | 0.00 | 40 | 1002.2 |
| 20260507145014 | 23 | 250 | 12.9 | 19.3 | 0.00 | 0.03 | 0.00 | 38 | 1002.2 |
| 20260507144006 | 25 | 261 | 16.1 | 20.9 | 0.00 | 0.03 | 0.00 | 36 | 1002.2 |
| 20260507143008 | 25 | 7 | 4.8 | 9.7 | 0.00 | 0.03 | 0.00 | 35 | 1002.2 |